When you browse on this site, cookies collect data to enhance your experience and personalize the content and advertising you see.
Visit our Privacy Policy to learn more. By continuing to use the site, you agree to this use of cookies and data.
  • In Deutschland
  • Länderverzeichnis
  • Für 7 Tage
  • Wassertemperatur
  • Wetterkarte
  • Widgets
  • user-avatar
    Anmelden

    Stündliche Wetter Vadsø

    Heute, 3 April, Freitag

    Zeit Temperatur Niederschläge Wind Luftdruck Luftfeuchtigkeit
    00:00 -10°C° 0 mm 0 m/S 732 mmHg 88%
    01:00 -10°C° 0 mm 0 m/S 732 mmHg 87%
    02:00 -10°C° 0 mm 0 m/S 732 mmHg 87%
    03:00 -10°C° 0 mm 0 m/S 732 mmHg 87%
    04:00 -10°C° 0 mm 1 m/S 732 mmHg 86%
    05:00 -10°C° 0 mm 1 m/S 731 mmHg 86%
    06:00 -9°C° 0 mm 1 m/S 731 mmHg 86%
    07:00 -9°C° 0 mm 1 m/S 731 mmHg 86%
    08:00 -8°C° 0 mm 0 m/S 732 mmHg 86%
    09:00 -7°C° 0 mm 1 m/S 732 mmHg 85%
    10:00 -7°C° 0 mm 1 m/S 732 mmHg 84%
    11:00 -6°C° 0 mm 1 m/S 732 mmHg 83%
    12:00 -6°C° 0 mm 1 m/S 732 mmHg 83%
    13:00 -4°C° 0 mm 1 m/S 732 mmHg 83%
    14:00 -4°C° 0 mm 1 m/S 732 mmHg 83%
    15:00 -6°C° 0 mm 1 m/S 732 mmHg 84%
    16:00 -6°C° 0 mm 1 m/S 733 mmHg 85%
    17:00 -7°C° 0 mm 1 m/S 733 mmHg 86%
    18:00 -9°C° 0 mm 2 m/S 733 mmHg 86%
    19:00 -10°C° 0 mm 2 m/S 733 mmHg 85%
    20:00 -12°C° 0 mm 2 m/S 734 mmHg 85%
    21:00 -12°C° 0 mm 2 m/S 734 mmHg 84%
    22:00 -12°C° 0 mm 2 m/S 734 mmHg 84%
    23:00 -13°C° 0 mm 3 m/S 735 mmHg 83%

    Morgen, 4 April, Samstag

    Zeit Temperatur Niederschläge Wind Luftdruck Luftfeuchtigkeit
    00:00 -13°C° 0 mm 3 m/S 735 mmHg 84%
    01:00 -14°C° 0 mm 3 m/S 735 mmHg 84%
    02:00 -14°C° 0 mm 3 m/S 736 mmHg 85%
    03:00 -14°C° 0 mm 3 m/S 736 mmHg 85%
    04:00 -14°C° 0 mm 3 m/S 737 mmHg 85%
    05:00 -14°C° 0 mm 3 m/S 737 mmHg 85%
    06:00 -14°C° 0 mm 4 m/S 738 mmHg 84%
    07:00 -12°C° 0 mm 4 m/S 738 mmHg 84%
    08:00 -12°C° 0 mm 4 m/S 739 mmHg 83%
    09:00 -11°C° 0 mm 5 m/S 739 mmHg 83%
    10:00 -10°C° 0 mm 6 m/S 740 mmHg 83%
    11:00 -8°C° 0 mm 7 m/S 741 mmHg 82%
    12:00 -8°C° 0.1 mm 7 m/S 741 mmHg 84%
    13:00 -7°C° 0.1 mm 8 m/S 742 mmHg 86%
    14:00 -6°C° 0.1 mm 9 m/S 743 mmHg 88%
    15:00 -8°C° 0.2 mm 9 m/S 743 mmHg 88%
    16:00 -8°C° 0.2 mm 10 m/S 744 mmHg 87%
    17:00 -8°C° 0.2 mm 11 m/S 745 mmHg 86%
    18:00 -9°C° 0.3 mm 11 m/S 746 mmHg 85%
    19:00 -9°C° 0.3 mm 11 m/S 746 mmHg 84%
    20:00 -9°C° 0.3 mm 11 m/S 747 mmHg 83%
    21:00 -9°C° 0.3 mm 10 m/S 748 mmHg 84%
    22:00 -9°C° 0.3 mm 10 m/S 749 mmHg 85%
    23:00 -9°C° 0.3 mm 9 m/S 749 mmHg 85%

    übermorgen, 5 April, Sonntag

    Zeit Temperatur Niederschläge Wind Luftdruck Luftfeuchtigkeit
    00:00 -8°C° 0.3 mm 8 m/S 750 mmHg 86%
    01:00 -10°C° 0.3 mm 8 m/S 751 mmHg 86%
    02:00 -9°C° 0.3 mm 7 m/S 752 mmHg 86%
    03:00 -9°C° 0.4 mm 7 m/S 753 mmHg 85%
    04:00 -9°C° 0.4 mm 6 m/S 753 mmHg 85%
    05:00 -9°C° 0.4 mm 6 m/S 754 mmHg 84%
    06:00 -9°C° 0.1 mm 6 m/S 755 mmHg 84%
    07:00 -9°C° 0.1 mm 6 m/S 755 mmHg 84%
    08:00 -9°C° 0.1 mm 6 m/S 756 mmHg 83%
    09:00 -8°C° 0 mm 7 m/S 757 mmHg 82%
    10:00 -8°C° 0 mm 7 m/S 757 mmHg 80%
    11:00 -8°C° 0 mm 7 m/S 758 mmHg 78%
    12:00 -8°C° 0 mm 7 m/S 758 mmHg 78%
    13:00 -8°C° 0 mm 6 m/S 759 mmHg 77%
    14:00 -8°C° 0 mm 6 m/S 759 mmHg 77%
    15:00 -7°C° 0 mm 5 m/S 760 mmHg 78%
    16:00 -8°C° 0 mm 4 m/S 760 mmHg 78%
    17:00 -9°C° 0 mm 4 m/S 760 mmHg 79%
    18:00 -9°C° 0 mm 3 m/S 761 mmHg 79%
    19:00 -10°C° 0 mm 3 m/S 761 mmHg 79%
    20:00 -13°C° 0 mm 3 m/S 761 mmHg 80%
    21:00 -13°C° 0 mm 3 m/S 761 mmHg 78%
    22:00 -14°C° 0 mm 3 m/S 761 mmHg 76%
    23:00 -14°C° 0 mm 3 m/S 761 mmHg 75%

    6 April, Montag

    Zeit Temperatur Niederschläge Wind Luftdruck Luftfeuchtigkeit
    00:00 -14°C° 0 mm 3 m/S 761 mmHg 74%
    01:00 -14°C° 0 mm 4 m/S 760 mmHg 74%
    02:00 -14°C° 0 mm 4 m/S 760 mmHg 74%
    03:00 -12°C° 0 mm 4 m/S 759 mmHg 76%
    04:00 -13°C° 0 mm 5 m/S 759 mmHg 78%
    05:00 -12°C° 0 mm 6 m/S 759 mmHg 80%
    06:00 -12°C° 0.1 mm 7 m/S 758 mmHg 84%
    07:00 -11°C° 0.1 mm 7 m/S 757 mmHg 89%
    08:00 -11°C° 0.1 mm 8 m/S 757 mmHg 93%
    09:00 -10°C° 0.2 mm 8 m/S 756 mmHg 93%
    10:00 -8°C° 0.2 mm 8 m/S 755 mmHg 93%
    11:00 -7°C° 0.2 mm 8 m/S 755 mmHg 92%
    12:00 -6°C° 0.2 mm 8 m/S 754 mmHg 93%
    13:00 -5°C° 0.2 mm 8 m/S 754 mmHg 94%
    14:00 -2°C° 0.2 mm 7 m/S 753 mmHg 95%
    15:00 -2°C° 0 mm 7 m/S 753 mmHg 95%
    16:00 -1°C° 0 mm 8 m/S 752 mmHg 95%
    17:00 -1°C° 0 mm 8 m/S 751 mmHg 95%
    18:00 -1°C° 0 mm 8 m/S 751 mmHg 94%
    19:00 -1°C° 0 mm 8 m/S 751 mmHg 92%
    20:00 -1°C° 0 mm 8 m/S 751 mmHg 91%
    21:00 -1°C° 0 mm 8 m/S 750 mmHg 91%
    22:00 -1°C° 0 mm 8 m/S 750 mmHg 91%
    23:00 -1°C° 0 mm 8 m/S 749 mmHg 91%

    7 April, Dienstag

    Zeit Temperatur Niederschläge Wind Luftdruck Luftfeuchtigkeit
    00:00 -1°C° 0 mm 8 m/S 749 mmHg 91%
    01:00 -2°C° 0 mm 8 m/S 748 mmHg 91%
    02:00 -2°C° 0 mm 8 m/S 748 mmHg 92%
    03:00 -2°C° 0 mm 8 m/S 747 mmHg 92%
    04:00 -1°C° 0 mm 8 m/S 747 mmHg 92%
    05:00 -1°C° 0 mm 8 m/S 746 mmHg 92%
    06:00 -1°C° 0 mm 8 m/S 746 mmHg 94%
    07:00 -1°C° 0 mm 8 m/S 746 mmHg 95%
    08:00 -1°C° 0 mm 8 m/S 745 mmHg 97%
    09:00 0°C° 0.1 mm 8 m/S 745 mmHg 98%
    10:00 0°C° 0.1 mm 8 m/S 745 mmHg 98%
    11:00 0°C° 0.1 mm 8 m/S 744 mmHg 99%
    12:00 +1°C° 0.5 mm 6 m/S 744 mmHg 99%
    13:00 0°C° 0.5 mm 5 m/S 744 mmHg 99%
    14:00 +1°C° 0.5 mm 3 m/S 744 mmHg 99%
    15:00 0°C° 0.5 mm 4 m/S 744 mmHg 97%
    16:00 0°C° 0.5 mm 5 m/S 743 mmHg 94%
    17:00 -1°C° 0.5 mm 7 m/S 743 mmHg 92%
    18:00 -2°C° 0 mm 7 m/S 743 mmHg 88%
    19:00 -3°C° 0 mm 7 m/S 743 mmHg 85%
    20:00 -5°C° 0 mm 8 m/S 742 mmHg 81%
    21:00 -5°C° 0 mm 8 m/S 741 mmHg 80%
    22:00 -6°C° 0 mm 8 m/S 741 mmHg 78%
    23:00 -6°C° 0 mm 8 m/S 740 mmHg 77%

    8 April, Mittwoch

    Zeit Temperatur Niederschläge Wind Luftdruck Luftfeuchtigkeit
    00:00 -6°C° 0 mm 9 m/S 739 mmHg 81%
    01:00 -7°C° 0 mm 10 m/S 738 mmHg 85%
    02:00 -7°C° 0 mm 11 m/S 738 mmHg 89%
    03:00 -5°C° 0.2 mm 10 m/S 738 mmHg 91%
    04:00 -4°C° 0.2 mm 10 m/S 738 mmHg 92%
    05:00 -3°C° 0.2 mm 9 m/S 739 mmHg 93%
    06:00 -3°C° 0.3 mm 11 m/S 740 mmHg 90%
    07:00 -5°C° 0.3 mm 13 m/S 741 mmHg 86%
    08:00 -5°C° 0.3 mm 15 m/S 743 mmHg 82%
    09:00 -5°C° 0 mm 16 m/S 744 mmHg 80%
    10:00 -5°C° 0 mm 16 m/S 746 mmHg 78%
    11:00 -6°C° 0 mm 17 m/S 747 mmHg 76%
    12:00 -5°C° 0 mm 14 m/S 748 mmHg 76%
    13:00 -5°C° 0 mm 12 m/S 750 mmHg 75%
    14:00 -4°C° 0 mm 10 m/S 751 mmHg 75%
    15:00 -4°C° 0 mm 9 m/S 752 mmHg 76%
    16:00 -5°C° 0 mm 8 m/S 752 mmHg 78%
    17:00 -4°C° 0 mm 7 m/S 753 mmHg 80%
    18:00 -4°C° 0 mm 8 m/S 751 mmHg 81%
    19:00 -4°C° 0 mm 8 m/S 750 mmHg 81%
    20:00 -3°C° 0 mm 9 m/S 749 mmHg 82%
    21:00 -2°C° 0 mm 10 m/S 748 mmHg 81%
    22:00 -1°C° 0 mm 12 m/S 747 mmHg 80%
    23:00 0°C° 0 mm 14 m/S 746 mmHg 80%
    Mehr zeigen